Location: Newark
(41.6500°N, 71.4833°W)
Time: 11:22:44
(UTC+00:00)

deb Explorer IX - Pass Details

Date: 29 January 2020
Orbit: 549 x 1099 km, 38.8° (Epoch: 25 February)

Event Time Altitude Azimuth Distance (km) Brightness Sun altitude
Rises 06:25:33 0° 279° (W) 3,897 - -60.0°
Reaches altitude 10° 06:28:39 10° 269° (W) 2,949 - -59.6°
Maximum altitude 06:34:48 30° 212° (SSW) 1,822 - -58.8°
Drops below altitude 10° 06:40:43 10° 154° (SSE) 2,823 - -57.9°
Sets 06:43:38 0° 144° (SE) 3,706 - -57.5°
